Regional Weather Roundup
Issued by NWS

Home | Current Version | Previous Version | Text Only | Print | Product List | Glossary Off
Versions: 1 2 3 4 5 6 7 8 9 10 11 12 13 14 15 16 17 18 19 20 21 22 23 24 25 26 27 28 29 30 31 32 33 34 35 36 37 38 39 40 41 42 43 44 45 46 47 48 49 50

818
ASUS43 KIND 311209
RWRIN

WEATHER ROUNDUP FOR INDIANA
NATIONAL WEATHER SERVICE INDIANAPOLIS IN
800 AM EDT TUE MAY 31 2016

NOTE: "FAIR" INDICATES FEW OR NO CLOUDS BELOW 12,000 FEET WITH NO
SIGNIFICANT WEATHER AND/OR OBSTRUCTIONS TO VISIBILITY.

* - STATION DOES NOT REPORT WEATHER SUCH AS PRECIPITATION OR FOG.

+ - STATION NOT QUALITY CONTROLLED BY THE NATIONAL WEATHER SERVICE.
    USE DATA WITH CAUTION...ESPECIALLY DEWPOINT AND RELATIVE
    HUMIDITY OBSERVATIONS.

INZ001>003-010>013-019-020-311300-
NORTHWEST INDIANA

CITY           SKY/WX    TMP DP  RH WIND       PRES   REMARKS
GARY /AIRPORT/ PTSUNNY   68  64  88 E6        30.01R
KNOX *+        PTSUNNY   64  50  59 E6        30.01S
LA PORTE +     CLOUDY    70  58  65 E8        30.03R
6HR MIN TEMP:  64; 6HR MAX TEMP:  70;

MICHIGAN CITY+ CLOUDY    64  57  77 E3        30.02S HAZE
MONTICELLO +   CLOUDY    66  52  59 E3        30.00R
6HR MIN TEMP:  64; 6HR MAX TEMP:  70;

RENSSELAER +   CLOUDY    70  57  64 E9        30.01R
VALPARAISO     MOSUNNY   66  58  75 E7        30.02R
6HR MIN TEMP:  61; 6HR MAX TEMP:  67;


$$

LMZ046-743>745-311300-
SOUTHERN LAKE MICHIGAN

STATION/POSITION TIME  TEMP    WIND        PRES    WAVE
                       AIR SEA DIR/SP/G            HT
                 (UTC) (F)     (DEG/KT/KT) (MB)    (FT)
BURNS HARBOR     1102   67     110/  6/  8 1016.3R
MICHIGAN CITY    1100   65      40/  3/  4   N/A
5NW MICH CITY    1200   63 61   60/  6/  6   N/A     0

$$

INZ004-005-014>016-021>024-311300-
NORTH CENTRAL INDIANA

CITY           SKY/WX    TMP DP  RH WIND       PRES   REMARKS
ELKHART        MOSUNNY   64  59  82 E5        30.04R
GOSHEN         PTSUNNY   66  56  70 E6        30.03R
6HR MIN TEMP:  56; 6HR MAX TEMP:  66;

LOGANSPORT +   CLOUDY    64  55  72 E5        30.03R
PERU/GRISSOM   MOSUNNY   66  59  78 E2        30.01R
6HR MIN TEMP:  61; 6HR MAX TEMP:  67;

ROCHESTER +    PTSUNNY   68  59  73 E3        30.03R
SOUTH BEND     PTSUNNY   65  56  72 E5        30.03S
6HR MIN TEMP:  58; 6HR MAX TEMP:  67;

WARSAW +       CLOUDY    64  59  82 E5        30.03R

$$

INZ006>009-017-018-025>027-311300-
NORTHEAST INDIANA

CITY           SKY/WX    TMP DP  RH WIND       PRES   REMARKS
ANGOLA *+        N/A     68  61  77 CALM      30.04R
AUBURN +       MOSUNNY   64  54  68 CALM      30.04R
FORT WAYNE     CLOUDY    66  56  70 NE7       30.03R
6HR MIN TEMP:  59; 6HR MAX TEMP:  68;

HUNTINGTON +   CLOUDY   N/A N/A N/A NE3       30.02S

$$

INZ028-029-035-036-043>045-051>053-311300-
WEST CENTRAL INDIANA

CITY           SKY/WX    TMP DP  RH WIND       PRES   REMARKS
CRAWFORDSVL +  MOSUNNY   63  63  99 CALM      30.01R
6HR MIN TEMP:  58; 6HR MAX TEMP:  63;

GREENCASTLE +  PTSUNNY   64  64 100 CALM      30.02R
LAFAYETTE      PTSUNNY   63  60  90 CALM      30.00R
6HR MIN TEMP:  60; 6HR MAX TEMP:  68;

TERRE HAUTE    MOSUNNY   67  63  87 CALM      30.00R
6HR MIN TEMP:  61; 6HR MAX TEMP:  67;


$$

INZ030>032-037>040-046>048-054>057-064-065-311300-
CENTRAL INDIANA

CITY           SKY/WX    TMP DP  RH WIND       PRES   REMARKS
CP ATTERBURY + MOSUNNY   63  61  94 MISG      30.02R
COLUMBUS       MOSUNNY   66  64  94 CALM      30.02R
FISHERS *+     MOSUNNY   64  64 100 CALM      30.01R
FRANKFORT +      N/A     66  52  59 CALM      30.03R
6HR MIN TEMP:  61; 6HR MAX TEMP:  69;

GREENWOOD *+   CLOUDY    66  63  88 CALM      30.02R
INDIANAPOLIS   CLOUDY    68  61  78 SW5       30.00R
6HR MIN TEMP:  65; 6HR MAX TEMP:  70;

-EAGLE CREEK   CLOUDY    69  62  78 CALM      30.00R
6HR MIN TEMP:  65; 6HR MAX TEMP:  69;

KOKOMO *+      CLOUDY    66  55  68 CALM      30.02R
6HR MIN TEMP:  63; 6HR MAX TEMP:  70;

MARION +       PTSUNNY   64  56  74 E3        30.03R
SHELBYVILLE    CLOUDY    70  61  73 CALM      30.01R
6HR MIN TEMP:  64; 6HR MAX TEMP:  70;

ZIONSVILLE +   CLOUDY    65  60  83 CALM      30.03R
6HR MIN TEMP:  59; 6HR MAX TEMP:  65;


$$

INZ033-034-041-042-049-050-058-059-311300-
EAST CENTRAL INDIANA

CITY           SKY/WX    TMP DP  RH WIND       PRES   REMARKS
MUNCIE         CLOUDY    69  58  67 CALM      30.02R
6HR MIN TEMP:  62; 6HR MAX TEMP:  69;


$$

INZ060-061-067>069-081>083-085>088-311300-
SOUTHWEST INDIANA

CITY           SKY/WX    TMP DP  RH WIND       PRES   REMARKS
EVANSVILLE     PTSUNNY   67  62  84 CALM      29.99R
6HR MIN TEMP:  63; 6HR MAX TEMP:  67;

HUNTINGBURG *+ MOSUNNY   66  63  88 CALM      30.00R
6HR MIN TEMP:  63; 6HR MAX TEMP:  66;

WASHINGTON +   CLOUDY    66  66 100 CALM      30.00R
6HR MIN TEMP:  62; 6HR MAX TEMP:  67;


$$

INZ062-063-066-070>080-084-089>092-311300-
SOUTH CENTRAL AND SOUTHEAST INDIANA

CITY           SKY/WX    TMP DP  RH WIND       PRES   REMARKS
BEDFORD +      PTSUNNY   66  66 100 CALM      30.01R
BLOOMINGTON    MOSUNNY   66  60  81 CALM      30.01R
6HR MIN TEMP:  63; 6HR MAX TEMP:  66;

MADISON *+     SUNNY     64  61  88 CALM      30.04R
NORTH VERNON + CLOUDY   N/A N/A N/A CALM      30.02R
SEYMOUR +      MOSUNNY   70  63  78 CALM      30.01R

$$





USA.gov is the U.S. government's official web portal to all federal, state and local government web resources and services.